Погода в Благовещенке

Погода в Благовещенке : погода сейчас, прогноз погоды и архив. Всё, что Вы хотите узнать о погоде в Благовещенке!

Поиск расширенной информации на нашем сайте:

Другие новости

Новости СМИ2

Главная страница сайта

Новости сайта

03.07.2017

Напоминаем, что на нашем специализированном сайте Метеоцентр.Азия вы можете получить высокодетализированные автоматические прогнозы погоды по пунктам России, СНГ и мира в авиационном формате (включающие направление и скорость ветра, видимость, явления погоды, количество и форму облачности, нижнюю и верхнюю границу облачности).

Рекомендуем: Одесса транспортно экспедиторские - экспедиторские компании одесса ukrspec.com.

Погода в Благовещенке - сегодня

Время (UTC), дата Ветер
(°,м/с) 
Видим.   Явления Облачность Т
(°С)
Тd
(°С)
f(%) Тe
(°С)
Pmin
(гПа)
dP
(гПа)
Po
(мм)
O2
(г/м3)
Тmin Tmax R s Состояние
почвы
12 11.02.18 120 (ЮВ) 20000 м    8/0 средняя, верхняя 
[Ac trans|Ci fib]
-13.6 -17.4 73 -16  1029.3  -0.9  757  322           
15 11.02.18 090 (В) н/о    10/0 средняя 
[As op]
-14.4 -17.5 77 -17  1029.5  757  323    -12.4       
18 11.02.18 080 (В) н/о    4/0 средняя 
[Ac trans]
-15.4 -18.2 79 -19  1028.4  -1.1  756  324    -12.4       
21 11.02.18 060 (СВ) н/о  дымка  ясно 
-18.2 -20.9 79 -21  1028  -0.6  756  328           
00 12.02.18 090 (В) н/о  дымка  ясно 
-16.8 -19.4 80 -19  1027.5  -0.4  755  326           
03 12.02.18 070 (В) 4000 м  дымка  10/0 средняя 
[As op]
-15.6 -18.1 81 -16  1027  -0.4  755  324        равномерный
сухой снег
100% 
09 12.02.18 090 (В) 10 км  {снег}  10/0 верхняя 
[Ci fib]
-11.3 -15.3 72 -11  1026.4  -0.3  755  319           
21 12.02.18 090 (В) н/о  дымка  10/0 средняя 
[As op]
-14.8 -17.8 78 -17  1026  -0.3  754  323           
03 13.02.18 080 (В) 4000 м  дымка{снег}  10/0 средняя 
[As op]
-16.2 -19.4 76 -20  1025.3  -0.5  754  324      0.0  равномерный
сухой снег
100% 
09 13.02.18 060 (СВ) 4000 м  слаб. снег  10/0 средняя 
[As op]
-14.3 -18.4 71 -20  1024.4  -0.9  753  322           
21 13.02.18 030 (СВ) н/о    10/0 средняя 
[As op]
-13 -15.7 80 -16  1021.7  -1.5  751  319           
00 14.02.18 020 (С) н/о    10/0 средняя 
[As op]
-13.8 -16.8 78 -16  1021.1  -0.7  751  320           
03 14.02.18 020 (С) 4000 м  слаб. снег  10/0 средняя 
[As op]
-14.4 -17.5 77 -18  1021.1  751  321      0.3  равномерный
сухой снег
100% 
09 14.02.18 350 (С) 2000 м  снег  10/10 300 м 
[Ns]
-14.8 -18.2 75 -18  1020.1  -0.5  750  321           
21 14.02.18 350 (С) н/о  слаб. снег  10/0 средняя 
[As op]
-13.6 -16.3 80 -19  1021.3  0.5  751  320           
03 15.02.18 360 (С) 4000 м  слаб. снег  10/0 средняя 
[As op]
-13.8 -16.8 78 -17  1023.3  1.3  752  321      10  равномерный
сухой снег
100% 
09 15.02.18 340 (С) 20000 м  {снег}  5/0 верхняя 
[Ci fib]
-12.5 -17.4 67 -17  1027.1  1.8  755  320           
21 15.02.18 310 (СЗ) н/о  дымка  ясно 
-18.7 -21.6 78 -19  1035.2  1.1  761  331           
03 16.02.18 260 (З) 4000 м  дымка  9/0 средняя 
[Ac trans]
-12.8 -15.1 83 -13  1037.2  1.3  763  324        10  равномерный
сухой снег
100% 
09 16.02.18 тихо ()   4000 м  дымка  9/0 средняя 
[Ac As]
-6.8 -11 72 -7  1038.5  0.9  764  317           
21 16.02.18 190 (Ю) н/о  в посл. час снег  10/0 средняя 
[As op]
-11 -13 85 -11  1040.7  0.3  765  323           
00 17.02.18 тихо ()   н/о  дымка{снег}  10/0 средняя 
[As op]
-10.9 -12.6 87 -11  1041.1    766  323           
03 17.02.18 220 (ЮЗ) 4000 м  слаб. снег  10/0 средняя 
[As op]
-10.5 -12.5 85 -12  1041.3  0.2  766  322      0.5  11  равномерный
сухой снег
100% 
09 17.02.18 250 (З) 20000 м    5/0 верхняя 
[Ci fib]
-8.1 -11.8 75 -10  1041.2  -0.4  766  319           
12 17.02.18 230 (ЮЗ) 20000 м    ясно 
-12 -16 72 -12  1041.1  -0.4  766  324           
Время (UTC), дата Ветер
(°,м/с) 
Видим.   Явления Облачность Т
(°С)
Тd
(°С)
f(%) Тe
(°С)
Pmin
(гПа)
dP
(гПа)
Po
(мм)
O2
(г/м3)
Тmin Tmax R s Состояние
почвы

Для получения пояснительной информации подведите курсор к названию столбца.

ПОГОДА в Благовещенке - архив

Всё, что Вы хотите узнать о погоде в Благовещенке - удобно и подробно!

Выберите нужную дату (начиная с 1 января 2015* года) и нажмите кнопку "Найти".
Будут отображены архивные сводки погоды по пункту Благовещенка, начиная с указанной даты.


Отображать данные в формате CSV (для использования в таблицах Excel)


Внимание! Наш архив погоды предназначен исключительно для личного некоммерческого использования в познавательных целях. Если Вам необходимы официальные справки о состоянии погоды (для производственных, юридических, коммерческих и т.п. целей), обращайтесь в органы Росгидромета.

*Примечание: данная дата относится к архиву по метеостанциям СССР (Россия, СНГ, Балтия).
Архив по метеостанциям Зарубежной Европы и Азии (кроме Китая) хранится 10 дней, по другим регионам земного шара (Китай, Африка, Америка, Австралия, Океания) - 1 день.

Благовещенка - район местоположения метеостанции


Название, широта, долгота, высота метеостанции:
Благовещенка 54.4°ш. 67°д. 151 м над ур. моря [Казахстан]

Дополнительная информация

В oтличие oт бoльшинства пoгoдных сайтoв мы публикуем пoдрoбную метеoинфoрмацию в детальнoм прoфессиoнальнoм фoрмате.

Характеристики температуры и влажнoсти вoздуха измеряются на высoте 2 м в тени вдали oт зданий и деревьев.
Скoрoсть ветра измеряется на высoте 10 м (на урoвне рoста челoвека скoрoсть ветра ниже в 1.5-2 раза). Если метеoстанция нахoдится в гoрoде или в лесу, тo скoрoсть ветра занижена на 2-4 м/с пo сравнению с oткрытым местoм. Скoрoсть ветра над акватoриями крупных рек и oзёр, а также на вершинах хoлмoв на 2-5 м/с выше, чем в oбычных услoвиях.
Атмoсфернoе давление в разных тoчках местнoсти мoжет значительнo oтличаться oт давления на метеoстанции, в зависимoсти oт услoвий рельефа (при пoдъёме на 10 м давление пoнижается примернo на 1 мм рт.ст.).